Weather in Mayak

Russia / Khabarovsk Krai     48°55′03″N   136°14′42″E
temp.,
°C
wind,
m/s
gust,
m/s
humid.,
%
clouds,
%
prec.,
mm/h
press.,
hPa
HPBL,
m
27 february, sat
sat2701:00−20s479992 0.0 1034141
04:00−21s499784 0.0 1034173
07:00−21s49968 0.0 1035188
10:00−17ssw510899 0.0 1034335
13:00−13ssw588667 0.0 1032430
16:00−10ssw478482 0.0 1028514
19:00−13s1190100 0.0 102621
22:00−12ese1290100 0.0 102321
28 february, sun
sun2801:00−9ssw31289100 0.0 1020384
04:00−6sw61394100 1.1 1017763
07:00−6sw61393100 1.1 1016839
10:00−5sw71389100 1.7 1015588
13:00−6wsw7118573 0.0 1016542
16:00−6sw7137587 0.0 1017897
19:00−10sw71468100 0.0 1020529
22:00−13sw81571100 0.0 1022518
1 march, mon
mon101:00−16sw7147746 0.0 1023433
04:00−19sw6138123 0.0 1025370
07:00−20sw612820 0.0 1027328
10:00−18sw711790 0.0 1029624
13:00−14sw611660 0.0 10281284
16:00−13wsw712650 0.0 10291477
19:00−16sw513750 0.0 1030395
22:00−18wsw515740 0.0 1031452
2 march, tue
tue201:00−20sw612810 0.0 1031294
04:00−22sw612860 0.0 1032250
07:00−24ssw48880 0.0 1032135
10:00−21ssw58840 0.0 1032394
13:00−17sw46740 0.0 1030835
16:00−15ssw247122 0.0 1029858
19:00−19s468813 0.0 103183
22:00−23ssw46917 0.0 103286
3 march, wed
wed301:00−24ssw34900 0.0 103177
04:00−25ssw34910 0.0 103055
07:00−26s34920 0.0 103084
10:00−20ssw48860 0.0 1029280
13:00−14ssw367940 0.0 1025472
16:00−11sw237560 0.0 1022510
19:00−15ne0086100 0.0 102020
22:00−14s1187100 0.0 101920